Change the Weather History Date:

Sunday, May 12, 2013

  Actual Average Record
Temperature  
Mean Temperature 59 °F 56 °F  
Max Temperature 69 °F 63 °F 78 °F (2014)
Min Temperature 49 °F 50 °F 42 °F (2000)
Degree Days  
Heating Degree Days 6    
Month to date heating degree days 66  
Since 1 July heating degree days 3009  
Cooling Degree Days 0    
Month to date cooling degree days 7  
Year to date cooling degree days 7  
Growing Degree Days 7 (Base 50)    
Moisture  
Dew Point 50 °F    
Average Humidity 78    
Maximum Humidity 100    
Minimum Humidity 56    
Precipitation  
Precipitation 0.00 in - 0.40 in (1998)
Month to date precipitation 0.00  
Year to date precipitation 3.09  
Since 1 July precipitation 11.33  
Sea Level Pressure  
Sea Level Pressure 30.14 in    
Wind  
Wind Speed 5 mph (WNW)    
Max Wind Speed 14 mph    
Max Gust Speed 20 mph    
Visibility 5 miles    
Events Fog    
T = Trace of Precipitation, MM = Missing Value Source: NWS Daily Summary

Daily Weather History Graph

Daily Weather History Graph

Search for Another Location

Airport or City:

Trip Planner

Search our weather history database for the weather conditions in past years. The results will help you decide how hot, cold, wet, or windy it might be!

Date:

Astronomy

May. 12, 2013 Rise Set
Actual Time 6:02 AM PDT 8:05 PM PDT
Civil Twilight 5:33 AM PDT 8:34 PM PDT
Nautical Twilight 4:59 AM PDT 9:09 PM PDT
Astronomical Twilight 4:21 AM PDT 9:46 PM PDT
Moon 8:02 AM PDT (5/12) 10:35 PM PDT (5/12)
Length of Visible Light 15h 00m
Length of Day
14h 02m
Waxing Crescent, 7% of the Moon is Illuminated
May 12
Waxing Crescent
May 17
First Quarter
May 24
Full
May 31
Last Quarter
Jun 8
New

Hourly Weather History & Observations

Time (PDT) Temp. Dew Point Humidity Pressure Visibility Wind Dir Wind Speed Gust Speed Precip Events Conditions
12:54 AM 52.0 °F 50.0 °F 93% 30.18 in 5.0 mi ENE 3.5 mph - N/A   Overcast
1:28 AM 51.8 °F 50.0 °F 94% 30.13 in 2.5 mi East 3.5 mph - N/A   Overcast
1:40 AM 51.8 °F 50.0 °F 94% 30.13 in 0.8 mi Calm Calm - N/A   Overcast
1:52 AM 51.8 °F 50.0 °F 94% 30.13 in 1.5 mi East 3.5 mph - N/A   Overcast
1:54 AM 52.0 °F 50.0 °F 93% 30.17 in 1.5 mi East 3.5 mph - N/A   Overcast
2:37 AM 50.0 °F 50.0 °F 100% 30.12 in 0.2 mi NNE 3.5 mph - N/A Fog Fog
2:54 AM 50.0 °F 48.9 °F 96% 30.16 in 0.5 mi ENE 3.5 mph - N/A Fog Fog
3:08 AM 50.0 °F 50.0 °F 100% 30.12 in 1.0 mi Calm Calm - N/A   Overcast
3:18 AM 50.0 °F 48.2 °F 94% 30.11 in 3.0 mi East 3.5 mph - N/A   Mostly Cloudy
3:32 AM 50.0 °F 48.2 °F 94% 30.11 in 10.0 mi East 5.8 mph - N/A   Scattered Clouds
3:54 AM 50.0 °F 48.0 °F 93% 30.15 in 10.0 mi Calm Calm - N/A   Clear
4:54 AM 50.0 °F 46.9 °F 89% 30.15 in 10.0 mi Calm Calm - N/A   Scattered Clouds
5:04 AM 50.0 °F 48.2 °F 94% 30.11 in 2.5 mi Calm Calm - N/A   Mostly Cloudy
5:20 AM 50.0 °F 48.2 °F 94% 30.12 in 1.0 mi Calm Calm - N/A   Overcast
5:27 AM 50.0 °F 48.2 °F 94% 30.12 in 0.8 mi Calm Calm - N/A   Mist
5:36 AM 50.0 °F 48.2 °F 94% 30.12 in 1.2 mi Calm Calm - N/A   Overcast
5:44 AM 50.0 °F 48.2 °F 94% 30.12 in 0.5 mi Calm Calm - N/A Fog Fog
5:51 AM 50.0 °F 48.2 °F 94% 30.12 in 0.2 mi Calm Calm - N/A Fog Fog
5:54 AM 50.0 °F 48.9 °F 96% 30.16 in 0.5 mi Calm Calm - N/A Fog Fog
6:22 AM 48.2 °F 48.2 °F 100% 30.13 in 0.2 mi Calm Calm - N/A Fog Fog
6:54 AM 50.0 °F 48.9 °F 96% 30.18 in 0.2 mi Calm Calm - N/A Fog Fog
7:49 AM 50.0 °F 50.0 °F 100% 30.15 in 0.5 mi Calm Calm - N/A Fog Fog
7:50 AM 50.0 °F 50.0 °F 100% 30.19 in 0.5 mi Calm Calm - N/A Fog Fog
8:03 AM 50.0 °F 50.0 °F 100% 30.15 in 0.8 mi Calm Calm - N/A   Mostly Cloudy
8:17 AM 51.8 °F 50.0 °F 94% 30.15 in 2.0 mi Calm Calm - N/A   Mostly Cloudy
8:25 AM 51.8 °F 51.8 °F 100% 30.15 in 10.0 mi Calm Calm - N/A   Scattered Clouds
8:54 AM 55.9 °F 51.1 °F 84% 30.19 in 10.0 mi Calm Calm - N/A   Clear
9:54 AM 66.9 °F 53.1 °F 61% 30.18 in 10.0 mi Calm Calm - N/A   Clear
10:54 AM 62.1 °F 52.0 °F 70% 30.19 in 10.0 mi NW 6.9 mph - N/A   Clear
11:54 AM 64.0 °F 54.0 °F 70% 30.19 in 10.0 mi NW 9.2 mph - N/A   Clear
12:54 PM 66.0 °F 55.0 °F 68% 30.19 in 10.0 mi West 10.4 mph - N/A   Clear
1:54 PM 64.9 °F 55.0 °F 70% 30.19 in 10.0 mi WNW 6.9 mph - N/A   Clear
2:54 PM 64.9 °F 55.0 °F 70% 30.17 in 10.0 mi West 8.1 mph - N/A   Clear
3:54 PM 66.9 °F 53.1 °F 61% 30.15 in 10.0 mi West 8.1 mph - N/A   Clear
4:54 PM 66.0 °F 51.1 °F 59% 30.14 in 10.0 mi West 6.9 mph 17.3 mph N/A   Clear
5:54 PM 66.9 °F 50.0 °F 54% 30.12 in 10.0 mi West 10.4 mph - N/A   Clear
6:54 PM 64.9 °F 48.0 °F 54% 30.10 in 10.0 mi West 9.2 mph - N/A   Clear
7:54 PM 59.0 °F 50.0 °F 72% 30.10 in 10.0 mi SW 6.9 mph - N/A   Clear
8:54 PM 55.9 °F 50.0 °F 80% 30.11 in 10.0 mi SW 9.2 mph - N/A   Clear
9:54 PM 55.9 °F 51.1 °F 84% 30.11 in 10.0 mi WSW 4.6 mph - N/A   Clear
10:54 PM 55.0 °F 51.1 °F 86% 30.12 in 10.0 mi WSW 4.6 mph - N/A   Clear
11:54 PM 55.0 °F 52.0 °F 89% 30.11 in 10.0 mi WNW 4.6 mph - N/A   Clear